Flag for Madagascar Weather past 2 weeks in Antananarivo, Madagascar

Now
55 °F

Passing clouds.


Feels Like: 52 °F
Forecast: 47 / 67 °F
Wind: 14 mph from Southeast

Location: Antananarivo / Ivato

Current Time: Jul 30, 2014 at 6:41:35 PM

Latest Report: Jul 30, 2014 at 6:00 PM


Visibility: N/A

Pressure: 30.39 "Hg

Humidity: 94%

Dew point: 54 °F

Location of AntananarivoLocation

Historic Weather in Antananarivo — Graph

°F

Antananarivo temperature yesterday

Maximum temperature yesterday: 72 °F (at 11:30 AM)
Minimum temperature yesterday: 54 °F (at 6:30 AM)
Average temperature yesterday: 63 °F

Past Weeks' High & Low Weather Summary

 TemperatureHumidityPressure
High79 °F (Jul 19, 12:00 PM)100% (Jul 15, 6:00 PM)30.42 "Hg (Jul 15, 6:00 PM)
Low46 °F (Jul 18, 4:00 AM)53% (Jul 18, 12:30 PM)30.21 "Hg (Jul 22, 2:00 PM)
Average60 °F92%30.32 "Hg
* Reported Jul 15 6:00 PM — Jul 30 6:00 PM, Antananarivo, Weather by CustomWeather, © 2014

Note: Actual official high and low records may vary slightly from our data, if they occured in-between our weather recording intervals... More about our weather records

Advertising

Antananarivo weather history for previous 24 hours

 ConditionsComfort  
Time TempWeatherWind HumidityBarometerVisibility
6:00 PM
Jul 30
55 °FPassing clouds.14 mph94%30.39 "HgN/A
5:30 PM59 °FScattered clouds.10 mph82%30.39 "HgN/A
5:00 PM61 °FScattered clouds.12 mph83%30.36 "HgN/A
4:30 PM63 °FScattered clouds.17 mph77%30.36 "HgN/A
4:00 PM64 °FScattered clouds.15 mph73%30.36 "HgN/A
3:30 PM66 °FScattered clouds.13 mph68%30.36 "HgN/A
3:00 PM66 °FPartly sunny.13 mph73%30.36 "HgN/A
2:30 PM64 °FPartly sunny.15 mph73%30.36 "HgN/A
2:00 PM66 °FBroken clouds.15 mph73%30.36 "HgN/A
1:30 PM63 °FBroken clouds.16 mph77%30.36 "HgN/A
1:00 PM63 °FScattered clouds.15 mph77%30.36 "HgN/A
12:30 PM64 °FScattered clouds.15 mph78%30.36 "HgN/A
12:00 PM66 °FScattered clouds.16 mph73%30.36 "HgN/A
11:30 AM63 °FPartly sunny.13 mph83%30.36 "HgN/A
11:00 AM63 °FPartly sunny.17 mph77%30.36 "HgN/A
10:30 AM63 °FPartly sunny.17 mph83%30.39 "HgN/A
10:00 AM63 °FPartly sunny.17 mph83%30.39 "HgN/A
9:30 AM59 °FPartly sunny.16 mph88%30.39 "HgN/A
9:00 AM59 °FPartly sunny.20 mph94%30.39 "HgN/A
8:30 AM59 °FPartly sunny.16 mph94%30.36 "HgN/A
8:00 AM59 °FPartly sunny.13 mph94%30.36 "HgN/A
7:30 AM57 °FPartly sunny.14 mph100%30.36 "HgN/A
7:00 AM57 °FPartly sunny.13 mph94%30.33 "HgN/A
6:30 AM57 °FPartly sunny.12 mph94%30.33 "HgN/A
6:00 AM57 °FPassing clouds.10 mph94%30.33 "HgN/A
5:30 AM57 °FPassing clouds.13 mph94%30.33 "HgN/A
5:00 AM57 °FPassing clouds.12 mph94%30.33 "HgN/A
4:00 AM57 °FPassing clouds.10 mph100%30.33 "HgN/A
3:00 AM57 °FPassing clouds.12 mph100%30.33 "HgN/A
2:30 AM59 °FPassing clouds.13 mph94%30.33 "HgN/A
2:00 AM57 °FPassing clouds.10 mph100%30.33 "HgN/A
1:30 AM57 °FPassing clouds.12 mph100%30.33 "HgN/A
1:00 AM59 °FPassing clouds.8 mph94%30.36 "HgN/A
12:30 AM59 °FPassing clouds.9 mph100%30.36 "HgN/A
12:00 AM59 °FPassing clouds.7 mph100%30.36 "HgN/A
11:30 PM
Jul 29
59 °FPassing clouds.7 mph100%30.36 "HgN/A
11:00 PM59 °FPassing clouds.7 mph100%30.36 "HgN/A
10:30 PM59 °FPassing clouds.10 mph100%30.39 "HgN/A
10:00 PM59 °FPassing clouds.7 mph100%30.36 "HgN/A
9:30 PM61 °FPassing clouds.7 mph100%30.36 "HgN/A
9:00 PM61 °FPassing clouds.8 mph100%30.36 "HgN/A
8:30 PM59 °FPassing clouds.7 mph100%30.36 "HgN/A
8:00 PM59 °FPassing clouds.9 mph100%30.36 "HgN/A
7:30 PM63 °FPassing clouds.10 mph94%30.36 "HgN/A
7:00 PM63 °FPassing clouds.9 mph88%30.33 "HgN/A
6:30 PM63 °FPassing clouds.13 mph88%30.33 "HgN/A
6:00 PM63 °FPassing clouds.12 mph83%30.33 "HgN/A
Weather by CustomWeather, © 2014

See weather overviewHow to use our weather pages